Weather History for K21D - March, 2014

Change the Weather History Date:

Thursday, March 6, 2014

  Actual Average (KSTP) Record (KSTP)
Temperature  
Mean Temperature 20 °F -  
Max Temperature 28 °F 29 °F 59 °F (2005)
Min Temperature 12 °F 15 °F 5 °F (2008)
Degree Days  
Heating Degree Days 45    
Moisture  
Dew Point 15 °F    
Average Humidity 75    
Maximum Humidity 86    
Minimum Humidity 58    
Precipitation  
Precipitation 0.00 in - - ()
Sea Level Pressure  
Sea Level Pressure 30.09 in    
Wind  
Wind Speed 12 mph (SSE)    
Max Wind Speed 22 mph    
Max Gust Speed 30 mph    
Visibility 10 miles    
Events      
Averages and records for this station are not official NWS values.
T = Trace of Precipitation, MM = Missing Value Source: NWS Daily Summary

Daily Weather History Graph

Daily Weather History Graph

Search for Another Location

Airport or City:

Trip Planner

Search our weather history database for the weather conditions in past years. The results will help you decide how hot, cold, wet, or windy it might be!

Date:

Astronomy

Mar. 06, 2014 Rise Set
Actual Time 6:40 AM CST 6:05 PM CST
Civil Twilight 6:11 AM CST 6:35 PM CST
Nautical Twilight 5:37 AM CST 7:09 PM CST
Astronomical Twilight 5:02 AM CST 7:43 PM CST
Moon 9:33 AM CST (3/6) No Moon Set
Length of Visible Light 12h 23m
Length of Day
11h 25m
Waxing Crescent, 32% of the Moon is Illuminated
Mar 6
Waxing Crescent
Mar 8
First Quarter
Mar 16
Full
Mar 23
Last Quarter
Mar 30
New

Hourly Weather History & Observations

Time (CST) Temp. Windchill Dew Point Humidity Pressure Visibility Wind Dir Wind Speed Gust Speed Precip Events Conditions
12:11 AM 14.0 °F 2.9 °F 3.2 °F 62% 30.36 in 10.0 mi SSE 8.1 mph - N/A   Clear
12:31 AM 15.8 °F 4.2 °F 3.2 °F 58% 30.35 in 10.0 mi SSE 9.2 mph - N/A   Clear
12:51 AM 14.0 °F 2.0 °F 3.2 °F 62% 30.35 in 10.0 mi SSE 9.2 mph - N/A   Clear
1:11 AM 14.0 °F 1.2 °F 5.0 °F 67% 30.33 in 10.0 mi SSE 10.4 mph - N/A   Clear
1:31 AM 14.0 °F -0.2 °F 5.0 °F 67% 30.32 in 10.0 mi SSE 12.7 mph 17.3 mph N/A   Clear
1:51 AM 14.0 °F -0.2 °F 5.0 °F 67% 30.32 in 10.0 mi SSE 12.7 mph - N/A   Clear
2:11 AM 14.0 °F 0.5 °F 5.0 °F 67% 30.32 in 10.0 mi South 11.5 mph - N/A   Clear
2:31 AM 12.2 °F -0.2 °F 3.2 °F 67% 30.32 in 10.0 mi SSE 9.2 mph - N/A   Clear
2:51 AM 12.2 °F -1.0 °F 5.0 °F 73% 30.32 in 10.0 mi SSE 10.4 mph - N/A   Clear
3:11 AM 12.2 °F -0.2 °F 5.0 °F 73% 30.30 in 10.0 mi SSE 9.2 mph - N/A   Clear
3:31 AM 12.2 °F -0.2 °F 5.0 °F 73% 30.29 in 10.0 mi SSE 9.2 mph - N/A   Clear
3:50 AM 12.2 °F -1.0 °F 5.0 °F 73% 30.29 in 10.0 mi SSE 10.4 mph - N/A   Clear
4:11 AM 12.2 °F -0.2 °F 5.0 °F 73% 30.28 in 10.0 mi SSE 9.2 mph - N/A   Clear
4:31 AM 12.2 °F -1.0 °F 5.0 °F 73% 30.27 in 10.0 mi SSE 10.4 mph - N/A   Mostly Cloudy
4:51 AM 14.0 °F 1.2 °F 6.8 °F 73% 30.27 in 10.0 mi SSE 10.4 mph 16.1 mph N/A   Overcast
5:11 AM 14.0 °F 2.0 °F 6.8 °F 73% 30.27 in 10.0 mi South 9.2 mph - N/A   Overcast
5:31 AM 14.0 °F 1.2 °F 6.8 °F 73% 30.26 in 10.0 mi SSE 10.4 mph - N/A   Overcast
5:51 AM 14.0 °F 2.0 °F 6.8 °F 73% 30.24 in 10.0 mi SSE 9.2 mph - N/A   Overcast
6:11 AM 14.0 °F 2.0 °F 8.6 °F 79% 30.23 in 10.0 mi SSE 9.2 mph - N/A   Overcast
6:31 AM 14.0 °F 2.0 °F 8.6 °F 79% 30.23 in 10.0 mi SSE 9.2 mph - N/A   Overcast
6:51 AM 14.0 °F 1.2 °F 8.6 °F 79% 30.21 in 10.0 mi SSE 10.4 mph - N/A   Overcast
7:11 AM 14.0 °F 1.2 °F 8.6 °F 79% 30.20 in 10.0 mi SSE 10.4 mph - N/A   Scattered Clouds
7:31 AM 15.8 °F 3.4 °F 10.4 °F 79% 30.19 in 10.0 mi SSE 10.4 mph 16.1 mph N/A   Clear
7:51 AM 17.6 °F 4.3 °F 10.4 °F 73% 30.18 in 10.0 mi SSE 12.7 mph 18.4 mph N/A   Clear
8:11 AM 17.6 °F 3.7 °F 10.4 °F 73% 30.18 in 10.0 mi SSE 13.8 mph 18.4 mph N/A   Clear
8:31 AM 17.6 °F 3.2 °F 12.2 °F 79% 30.17 in 10.0 mi SSE 15.0 mph - N/A   Clear
8:51 AM 19.4 °F 7.2 °F 12.2 °F 74% 30.18 in 10.0 mi South 11.5 mph - N/A   Clear
9:11 AM 19.4 °F 7.9 °F 12.2 °F 74% 30.18 in 10.0 mi South 10.4 mph - N/A   Clear
9:31 AM 19.4 °F 6.0 °F 12.2 °F 74% 30.19 in 10.0 mi South 13.8 mph - N/A   Clear
9:51 AM 19.4 °F 6.6 °F 14.0 °F 80% 30.17 in 10.0 mi South 12.7 mph - N/A   Clear
10:11 AM 21.2 °F 8.3 °F 14.0 °F 74% 30.17 in 10.0 mi SSE 13.8 mph - N/A   Clear
10:31 AM 23.0 °F 10.6 °F 15.8 °F 74% 30.16 in 10.0 mi South 13.8 mph 20.7 mph N/A   Clear
10:51 AM 23.0 °F 9.6 °F 15.8 °F 74% 30.14 in 10.0 mi South 16.1 mph - N/A   Clear
11:11 AM 23.0 °F 9.6 °F 17.6 °F 80% 30.12 in 10.0 mi South 16.1 mph 25.3 mph N/A   Clear
11:31 AM 24.8 °F 13.4 °F 17.6 °F 74% 30.12 in 10.0 mi South 12.7 mph - N/A   Mostly Cloudy
11:51 AM 26.6 °F 14.3 °F 17.6 °F 69% 30.11 in 10.0 mi South 16.1 mph 20.7 mph N/A   Overcast
12:11 PM 26.6 °F 13.8 °F 19.4 °F 74% 30.08 in 10.0 mi South 17.3 mph 26.5 mph N/A   Overcast
12:31 PM 26.6 °F 13.1 °F 19.4 °F 74% 30.07 in 10.0 mi South 19.6 mph - N/A   Overcast
12:51 PM 26.6 °F 14.7 °F 19.4 °F 74% 30.06 in 10.0 mi South 15.0 mph 20.7 mph N/A   Overcast
1:11 PM 28.4 °F 15.8 °F 19.4 °F 69% 30.04 in 10.0 mi SSE 18.4 mph 27.6 mph N/A   Overcast
1:31 PM 28.4 °F 17.0 °F 21.2 °F 74% 30.02 in 10.0 mi South 15.0 mph 23.0 mph N/A   Overcast
1:51 PM 28.4 °F 15.4 °F 21.2 °F 74% 30.02 in 10.0 mi South 19.6 mph 25.3 mph N/A   Overcast
2:11 PM 28.4 °F 15.4 °F 21.2 °F 74% 30.02 in 10.0 mi South 19.6 mph 26.5 mph N/A   Overcast
2:31 PM 28.4 °F 14.7 °F 21.2 °F 74% 30.02 in 10.0 mi South 21.9 mph - N/A   Overcast
2:51 PM 28.4 °F 14.7 °F 21.2 °F 74% 30.00 in 10.0 mi South 21.9 mph 26.5 mph N/A   Overcast
3:10 PM 28.4 °F 15.1 °F 21.2 °F 74% 29.99 in 10.0 mi South 20.7 mph 25.3 mph N/A   Mostly Cloudy
3:31 PM 28.4 °F 15.4 °F 21.2 °F 74% 29.98 in 10.0 mi South 19.6 mph 29.9 mph N/A   Scattered Clouds
3:51 PM 28.4 °F 15.1 °F 21.2 °F 74% 29.97 in 10.0 mi South 20.7 mph 29.9 mph N/A   Scattered Clouds
4:10 PM 28.4 °F 16.2 °F 21.2 °F 74% 29.95 in 10.0 mi South 17.3 mph 26.5 mph N/A   Overcast
4:31 PM 28.4 °F 15.8 °F 21.2 °F 74% 29.94 in 10.0 mi South 18.4 mph 25.3 mph N/A   Overcast
4:51 PM 28.4 °F 15.8 °F 21.2 °F 74% 29.93 in 10.0 mi South 18.4 mph 24.2 mph N/A   Overcast
5:10 PM 28.4 °F 17.5 °F 21.2 °F 74% 29.93 in 10.0 mi South 13.8 mph 24.2 mph N/A   Mostly Cloudy
5:31 PM 28.4 °F 18.5 °F 21.2 °F 74% 29.94 in 10.0 mi South 11.5 mph - N/A   Scattered Clouds
5:51 PM 28.4 °F 17.0 °F 21.2 °F 74% 29.93 in 10.0 mi South 15.0 mph 18.4 mph N/A   Mostly Cloudy
6:11 PM 26.6 °F 15.2 °F 21.2 °F 80% 29.94 in 10.0 mi South 13.8 mph - N/A   Overcast
6:31 PM 26.6 °F 15.7 °F 21.2 °F 80% 29.92 in 10.0 mi South 12.7 mph - N/A   Overcast
6:51 PM 26.6 °F 16.2 °F 21.2 °F 80% 29.92 in 10.0 mi South 11.5 mph - N/A   Overcast
7:11 PM 26.6 °F 16.2 °F 19.4 °F 74% 29.92 in 10.0 mi South 11.5 mph - N/A   Scattered Clouds
7:31 PM 24.8 °F 14.0 °F 19.4 °F 80% 29.92 in 10.0 mi South 11.5 mph - N/A   Clear
7:51 PM 24.8 °F 14.0 °F 19.4 °F 80% 29.91 in 10.0 mi South 11.5 mph - N/A   Clear
8:11 PM 24.8 °F 14.6 °F 19.4 °F 80% 29.90 in 10.0 mi South 10.4 mph - N/A   Clear
8:31 PM 24.8 °F 14.6 °F 19.4 °F 80% 29.90 in 10.0 mi South 10.4 mph 16.1 mph N/A   Clear
8:51 PM 23.0 °F 12.4 °F 19.4 °F 86% 29.89 in 10.0 mi South 10.4 mph - N/A   Clear
9:11 PM 23.0 °F 12.4 °F 19.4 °F 86% 29.88 in 10.0 mi South 10.4 mph 16.1 mph N/A   Clear
9:31 PM 23.0 °F 12.4 °F 19.4 °F 86% 29.89 in 10.0 mi South 10.4 mph 16.1 mph N/A   Clear
9:51 PM 23.0 °F 12.4 °F 19.4 °F 86% 29.87 in 10.0 mi South 10.4 mph - N/A   Clear
10:11 PM 23.0 °F 13.1 °F 19.4 °F 86% 29.87 in 10.0 mi South 9.2 mph - N/A   Clear
10:31 PM 23.0 °F 13.1 °F 19.4 °F 86% 29.87 in 10.0 mi South 9.2 mph - N/A   Clear
10:51 PM 23.0 °F 14.7 °F 19.4 °F 86% 29.86 in 10.0 mi SSE 6.9 mph - N/A   Clear
11:11 PM 23.0 °F 13.9 °F 19.4 °F 86% 29.85 in 10.0 mi South 8.1 mph - N/A   Clear
11:31 PM 23.0 °F 13.1 °F 19.4 °F 86% 29.84 in 10.0 mi SSE 9.2 mph - N/A   Mostly Cloudy
11:51 PM 24.8 °F 15.3 °F 21.2 °F 86% 29.84 in 10.0 mi South 9.2 mph - N/A   Overcast